Flag for Austria Weather past 2 weeks in Linz, Upper Austria, Austria

Now
45 °F

Scattered clouds.


Feels Like: 40 °F
Forecast: 31 / 54 °F
Wind: 8 mph from Northwest

Location: Linz / Hoersching-Flughafen

Current Time: Apr 18, 2015 at 9:53:10 AM

Latest Report: Apr 18, 2015 at 9:20 AM


Visibility: N/A

Pressure: 30.15 "Hg

Humidity: 66%

Dew point: 34 °F

Location of LinzLocation

Historic Weather in Linz — Graph

°F

Linz temperature yesterday

Maximum temperature yesterday: 59 °F (at 12:20 PM)
Minimum temperature yesterday: 46 °F (at 11:50 PM)
Average temperature yesterday: 54 °F

Past Weeks' High & Low Weather Summary

 TemperatureHumidityPressure
High73 °F (Apr 15, 4:50 PM)94% (Apr 17, 6:20 PM)30.60 "Hg (Apr 17, 6:20 PM)
Low32 °F (Apr 3, 11:50 PM)27% (Apr 10, 5:50 PM)29.83 "Hg (Apr 17, 3:50 PM)
Average49 °F63%30.20 "Hg
* Reported Apr 3 8:20 AM — Apr 18 8:20 AM, Linz, Weather by CustomWeather, © 2015

Note: Actual official high and low records may vary slightly from our data, if they occured in-between our weather recording intervals... More about our weather records

Advertising

Linz weather history for previous 24 hours

 ConditionsComfort  
Time TempWeatherWind HumidityBarometerVisibility
8:20 AM
Sat, Apr 18
43 °FPartly sunny.7 mph71%30.12 "HgN/A
7:50 AM43 °FPartly sunny.6 mph71%30.12 "HgN/A
7:20 AM43 °FBroken clouds.6 mph71%30.12 "HgN/A
6:50 AM43 °FPartly cloudy.6 mph71%30.09 "HgN/A
6:20 AM43 °FPartly cloudy.5 mph71%30.09 "HgN/A
5:50 AM43 °FPassing clouds.6 mph71%30.09 "HgN/A
5:20 AM43 °FPassing clouds.6 mph71%30.07 "HgN/A
4:50 AM45 °FPassing clouds.5 mph76%30.07 "HgN/A
4:20 AM45 °FPassing clouds.3 mph76%30.07 "HgN/A
3:50 AM45 °FOvercast.3 mph71%30.07 "HgN/A
3:20 AM45 °FOvercast.3 mph71%30.07 "HgN/A
2:50 AM45 °FSprinkles. Overcast.3 mph71%30.07 "HgN/A
2:20 AM45 °FOvercast.7 mph66%30.04 "HgN/A
1:50 AM46 °FOvercast.5 mph62%30.04 "HgN/A
1:20 AM46 °FPassing clouds.7 mph66%30.04 "HgN/A
12:50 AM46 °FPassing clouds.8 mph62%30.04 "HgN/A
12:20 AM46 °FSprinkles. Partly cloudy.6 mph93%30.04 "Hg4 mi
11:50 PM
Fri, Apr 17
46 °FLight rain. Fog.6 mph93%30.01 "Hg3 mi
11:20 PM48 °FLight rain. Fog.6 mph87%30.01 "Hg3 mi
10:50 PM48 °FLight rain. Fog.5 mph94%29.98 "Hg3 mi
10:20 PM48 °FLight rain. Passing clouds.7 mph94%29.98 "Hg4 mi
9:50 PM48 °FLight rain. Passing clouds.2 mph87%29.95 "Hg4 mi
9:20 PM48 °FLight rain. Passing clouds.2 mph87%29.95 "Hg4 mi
8:50 PM48 °FRain. Broken clouds.8 mph87%29.92 "Hg4 mi
8:20 PM50 °FRain. Broken clouds.12 mph88%29.89 "Hg4 mi
7:50 PM52 °FRain. Broken clouds.8 mph88%29.89 "Hg4 mi
7:20 PM52 °FRain. Broken clouds.12 mph94%29.86 "Hg6 mi
6:50 PM52 °FSprinkles. Partly sunny.9 mph94%29.86 "HgN/A
6:20 PM54 °FRain showers. Broken clouds.12 mph94%29.86 "HgN/A
5:50 PM55 °FRain showers. Broken clouds.10 mph88%29.83 "HgN/A
5:20 PM57 °FThundershowers. Broken clouds.9 mph88%29.83 "HgN/A
4:50 PM57 °FThundershowers. Broken clouds.6 mph82%29.83 "HgN/A
4:20 PM57 °FBroken clouds.8 mph82%29.83 "HgN/A
3:50 PM57 °FBroken clouds.9 mph88%29.83 "HgN/A
3:20 PM55 °FPartly sunny.9 mph88%29.86 "HgN/A
2:50 PM55 °FPartly sunny.9 mph88%29.86 "HgN/A
2:20 PM57 °FSprinkles. Broken clouds.7 mph88%29.86 "HgN/A
1:50 PM55 °FRain showers. Broken clouds.7 mph88%29.86 "Hg5 mi
1:20 PM55 °FSprinkles. Broken clouds.5 mph88%29.86 "HgN/A
12:50 PM59 °FBroken clouds.2 mph72%29.86 "HgN/A
12:20 PM59 °FPartly sunny.3 mph72%29.86 "HgN/A
11:50 AM57 °FPartly sunny.5 mph77%29.89 "HgN/A
11:20 AM57 °FBroken clouds.5 mph77%29.89 "HgN/A
10:50 AM55 °FBroken clouds.3 mph82%29.89 "HgN/A
10:20 AM55 °FBroken clouds.3 mph82%29.89 "HgN/A
9:50 AM55 °FSprinkles. Broken clouds.6 mph82%29.89 "HgN/A
9:20 AM55 °FSprinkles. Broken clouds.3 mph82%29.89 "HgN/A
Weather by CustomWeather, © 2015

See weather overviewHow to use our weather pages